QPF
0.01 0.05 0.11 0.11 0.13 0.11 0.05 0.02 0.01 0.01 0.00 0.00 0.00 0.00 0.01 0.02 0.03 0.09 0.15 0.13 0.07 0.07 0.09 0.14 0.17 0.16 0.11 0.05 0.05 0.04 0.04 0.05 0.07 0.04 0.04 0.05 0.06 0.06 0.10 0.21 0.25 0.23 0.20 0.19 0.19 0.15 0.11 0.08 0.06
0.04 0.10 0.14 0.10 0.12 0.07 0.04 0.02 0.01 0.00 0.00 0.00 0.00 0.00 0.00 0.00 0.02 0.06 0.09 0.07 0.07 0.08 0.12 0.17 0.19 0.18 0.13 0.04 0.03 0.02 0.02 0.04 0.06 0.06 0.04 0.05 0.05 0.05 0.09 0.17 0.15 0.15 0.18 0.17 0.14 0.09 0.07 0.06 0.06
0.07 0.10 0.15 0.12 0.11 0.05 0.03 0.02 0.00 0.01 0.01 0.00 0.00 0.00 0.00 0.01 0.03 0.06 0.06 0.04 0.05 0.06 0.06 0.11 0.19 0.18 0.10 0.04 0.03 0.03 0.03 0.03 0.04 0.05 0.06 0.05 0.05 0.06 0.11 0.17 0.14 0.15 0.13 0.11 0.08 0.06 0.06 0.06 0.07
0.10 0.13 0.13 0.10 0.04 0.01 0.01 0.02 0.01 0.01 0.01 0.01 0.00 0.00 0.01 0.01 0.03 0.04 0.03 0.02 0.03 0.07 0.07 0.12 0.18 0.13 0.06 0.04 0.05 0.03 0.03 0.03 0.05 0.05 0.07 0.08 0.06 0.09 0.12 0.14 0.11 0.10 0.09 0.08 0.07 0.05 0.08 0.07 0.07
0.06 0.12 0.12 0.07 0.02 0.01 0.01 0.01 0.01 0.02 0.01 0.01 0.02 0.02 0.03 0.02 0.01 0.01 0.02 0.03 0.03 0.06 0.08 0.10 0.11 0.05 0.04 0.05 0.06 0.03 0.03 0.04 0.04 0.05 0.07 0.08 0.07 0.08 0.08 0.09 0.09 0.09 0.08 0.07 0.05 0.07 0.09 0.09 0.09
0.08 0.08 0.08 0.05 0.03 0.01 0.01 0.01 0.01 0.01 0.00 0.00 0.01 0.01 0.03 0.02 0.02 0.02 0.02 0.03 0.02 0.03 0.04 0.07 0.08 0.05 0.04 0.05 0.08 0.06 0.04 0.04 0.04 0.05 0.05 0.05 0.05 0.06 0.11 0.14 0.13 0.09 0.07 0.06 0.05 0.07 0.08 0.06 0.07
0.11 0.06 0.04 0.02 0.01 0.01 0.00 0.00 0.00 0.00 0.00 0.00 0.00 0.01 0.02 0.03 0.04 0.02 0.02 0.03 0.03 0.02 0.02 0.05 0.07 0.05 0.04 0.05 0.08 0.09 0.07 0.06 0.05 0.05 0.04 0.05 0.08 0.11 0.14 0.13 0.13 0.09 0.06 0.05 0.05 0.06 0.06 0.05 0.05
0.05 0.04 0.02 0.01 0.01 0.01 0.00 0.00 0.00 0.00 0.00 0.00 0.00 0.00 0.01 0.01 0.04 0.03 0.01 0.03 0.04 0.02 0.02 0.02 0.03 0.03 0.02 0.04 0.09 0.13 0.14 0.12 0.11 0.09 0.08 0.09 0.11 0.14 0.17 0.15 0.14 0.14 0.09 0.06 0.05 0.07 0.05 0.05 0.05
0.04 0.03 0.02 0.01 0.01 0.01 0.00 0.00 0.00 0.00 0.00 0.00 0.00 0.00 0.00 0.00 0.01 0.02 0.01 0.03 0.03 0.02 0.02 0.02 0.02 0.03 0.02 0.03 0.04 0.07 0.10 0.10 0.11 0.10 0.10 0.10 0.09 0.10 0.14 0.15 0.16 0.16 0.11 0.08 0.07 0.06 0.04 0.04 0.04
0.05 0.02 0.01 0.01 0.01 0.00 0.00 0.00 0.00 0.00 0.00 0.01 0.01 0.01 0.00 0.00 0.00 0.00 0.01 0.01 0.02 0.02 0.02 0.03 0.02 0.02 0.02 0.01 0.03 0.03 0.02 0.02 0.03 0.03 0.04 0.04 0.05 0.08 0.09 0.13 0.16 0.14 0.10 0.07 0.06 0.05 0.04 0.04 0.04
0.02 0.01 0.01 0.01 0.00 0.00 0.00 0.00 0.00 0.00 0.00 0.00 0.00 0.00 0.00 0.00 0.00 0.00 0.01 0.01 0.01 0.02 0.03 0.05 0.03 0.01 0.01 0.01 0.02 0.01 0.01 0.00 0.00 0.01 0.02 0.02 0.05 0.08 0.07 0.07 0.09 0.09 0.08 0.06 0.05 0.05 0.04 0.03 0.04
0.01 0.01 0.01 0.01 0.00 0.00 0.00 0.00 0.00 0.00 0.00 0.00 0.00 0.00 0.01 0.00 0.00 0.01 0.01 0.01 0.03 0.03 0.03 0.03 0.02 0.01 0.01 0.01 0.01 0.01 0.01 0.01 0.00 0.01 0.02 0.02 0.04 0.06 0.05 0.04 0.04 0.04 0.05 0.05 0.04 0.04 0.04 0.04 0.04
0.00 0.01 0.01 0.01 0.00 0.00 0.00 0.00 0.00 0.00 0.00 0.00 0.00 0.00 0.00 0.01 0.00 0.01 0.00 0.01 0.02 0.03 0.02 0.01 0.01 0.01 0.01 0.01 0.02 0.02 0.01 0.00 0.00 0.01 0.02 0.02 0.03 0.04 0.03 0.03 0.03 0.03 0.05 0.04 0.03 0.05 0.05 0.05 0.04
0.01 0.01 0.00 0.00 0.01 0.01 0.01 0.00 0.00 0.01 0.00 0.00 0.00 0.00 0.00 0.00 0.00 0.00 0.00 0.00 0.02 0.03 0.03 0.01 0.01 0.01 0.01 0.02 0.02 0.01 0.01 0.01 0.01 0.01 0.02 0.02 0.03 0.04 0.02 0.03 0.03 0.03 0.03 0.03 0.04 0.05 0.06 0.05 0.04
0.01 0.01 0.01 0.01 0.01 0.02 0.01 0.01 0.01 0.01 0.01 0.00 0.00 0.00 0.00 0.00 0.00 0.00 0.00 0.00 0.01 0.01 0.02 0.01 0.00 0.01 0.02 0.03 0.02 0.01 0.01 0.01 0.01 0.01 0.02 0.02 0.03 0.03 0.02 0.02 0.02 0.02 0.02 0.02 0.03 0.04 0.05 0.06 0.04
0.01 0.01 0.02 0.02 0.02 0.02 0.01 0.02 0.01 0.01 0.01 0.00 0.00 0.00 0.00 0.00 0.00 0.00 0.00 0.00 0.00 0.01 0.01 0.02 0.01 0.02 0.03 0.02 0.02 0.01 0.01 0.01 0.01 0.01 0.03 0.04 0.04 0.03 0.02 0.02 0.01 0.01 0.02 0.02 0.02 0.03 0.04 0.04 0.04
0.02 0.03 0.03 0.03 0.02 0.02 0.01 0.01 0.01 0.01 0.00 0.00 0.00 0.00 0.01 0.00 0.00 0.00 0.00 0.00 0.00 0.01 0.02 0.02 0.03 0.04 0.04 0.04 0.02 0.01 0.01 0.01 0.01 0.02 0.04 0.05 0.05 0.03 0.03 0.02 0.02 0.02 0.02 0.02 0.02 0.02 0.03 0.03 0.03
0.02 0.02 0.04 0.03 0.03 0.03 0.03 0.02 0.01 0.01 0.01 0.01 0.00 0.00 0.01 0.01 0.00 0.00 0.00 0.00 0.01 0.01 0.02 0.04 0.05 0.07 0.07 0.04 0.03 0.01 0.02 0.02 0.03 0.03 0.04 0.03 0.04 0.04 0.03 0.03 0.03 0.03 0.02 0.02 0.02 0.01 0.02 0.02 0.03
0.01 0.02 0.02 0.02 0.02 0.04 0.04 0.03 0.02 0.01 0.01 0.01 0.01 0.00 0.00 0.00 0.00 0.00 0.00 0.00 0.01 0.01 0.02 0.03 0.06 0.12 0.10 0.05 0.02 0.02 0.02 0.03 0.04 0.04 0.04 0.05 0.05 0.04 0.03 0.05 0.04 0.04 0.02 0.01 0.02 0.02 0.02 0.02 0.03
0.01 0.01 0.01 0.01 0.01 0.03 0.04 0.03 0.02 0.02 0.01 0.01 0.02 0.01 0.00 0.00 0.01 0.01 0.01 0.01 0.00 0.00 0.01 0.01 0.01 0.03 0.04 0.03 0.02 0.03 0.04 0.03 0.03 0.04 0.06 0.07 0.06 0.06 0.05 0.04 0.04 0.04 0.03 0.02 0.02 0.03 0.02 0.02 0.02
0.00 0.00 0.01 0.01 0.01 0.03 0.03 0.04 0.03 0.02 0.02 0.01 0.01 0.01 0.00 0.00 0.00 0.00 0.01 0.01 0.01 0.01 0.01 0.00 0.00 0.00 0.00 0.01 0.02 0.03 0.02 0.02 0.02 0.04 0.07 0.09 0.10 0.08 0.05 0.03 0.03 0.04 0.04 0.03 0.03 0.03 0.02 0.02 0.02
0.00 0.00 0.00 0.00 0.01 0.02 0.04 0.05 0.03 0.04 0.03 0.01 0.01 0.01 0.00 0.00 0.00 0.00 0.00 0.00 0.00 0.00 0.00 0.00 0.00 0.00 0.00 0.00 0.01 0.01 0.02 0.02 0.02 0.03 0.05 0.07 0.09 0.07 0.05 0.03 0.03 0.04 0.04 0.04 0.04 0.04 0.03 0.03 0.03
0.00 0.00 0.00 0.01 0.02 0.02 0.03 0.04 0.03 0.04 0.03 0.01 0.01 0.01 0.01 0.00 0.00 0.00 0.00 0.00 0.00 0.00 0.00 0.00 0.00 0.00 0.00 0.00 0.00 0.00 0.01 0.01 0.02 0.02 0.03 0.04 0.04 0.04 0.05 0.04 0.03 0.03 0.04 0.04 0.04 0.03 0.03 0.03 0.03
0.00 0.00 0.00 0.01 0.01 0.02 0.02 0.04 0.03 0.02 0.01 0.01 0.01 0.01 0.01 0.01 0.00 0.01 0.00 0.00 0.00 0.00 0.00 0.00 0.00 0.00 0.00 0.00 0.00 0.00 0.00 0.00 0.01 0.01 0.02 0.02 0.02 0.02 0.04 0.04 0.03 0.03 0.03 0.03 0.02 0.02 0.02 0.03 0.02
0.00 0.00 0.00 0.01 0.02 0.03 0.04 0.05 0.04 0.02 0.01 0.01 0.00 0.00 0.01 0.01 0.01 0.01 0.00 0.00 0.00 0.00 0.00 0.00 0.00 0.00 0.00 0.00 0.00 0.00 0.00 0.00 0.00 0.01 0.01 0.02 0.03 0.03 0.03 0.04 0.03 0.02 0.02 0.03 0.02 0.02 0.02 0.02 0.02
0.00 0.00 0.01 0.03 0.02 0.03 0.06 0.05 0.08 0.03 0.02 0.02 0.01 0.00 0.01 0.02 0.02 0.01 0.00 0.00 0.00 0.01 0.01 0.00 0.01 0.01 0.00 0.00 0.00 0.00 0.00 0.00 0.01 0.01 0.02 0.02 0.02 0.02 0.02 0.03 0.02 0.02 0.02 0.02 0.03 0.02 0.01 0.02 0.03
0.00 0.00 0.01 0.02 0.01 0.03 0.05 0.04 0.05 0.03 0.02 0.02 0.01 0.01 0.01 0.01 0.02 0.01 0.01 0.01 0.02 0.02 0.01 0.01 0.02 0.01 0.01 0.01 0.00 0.00 0.00 0.01 0.01 0.02 0.02 0.02 0.02 0.02 0.02 0.03 0.03 0.02 0.03 0.04 0.05 0.04 0.03 0.03 0.02
0.00 0.01 0.01 0.04 0.05 0.05 0.03 0.02 0.04 0.05 0.03 0.02 0.02 0.02 0.05 0.04 0.01 0.01 0.01 0.02 0.02 0.03 0.02 0.02 0.02 0.01 0.01 0.00 0.00 0.00 0.01 0.01 0.01 0.01 0.02 0.02 0.02 0.03 0.04 0.03 0.04 0.04 0.03 0.04 0.05 0.05 0.04 0.03 0.02
0.00 0.00 0.00 0.01 0.02 0.03 0.02 0.02 0.03 0.05 0.03 0.02 0.03 0.06 0.05 0.03 0.02 0.02 0.02 0.02 0.03 0.06 0.05 0.04 0.05 0.03 0.02 0.01 0.01 0.01 0.01 0.01 0.01 0.01 0.01 0.02 0.03 0.04 0.04 0.05 0.04 0.03 0.03 0.04 0.04 0.05 0.05 0.04 0.03
0.00 0.01 0.01 0.01 0.01 0.01 0.02 0.02 0.02 0.03 0.02 0.02 0.02 0.03 0.03 0.03 0.03 0.04 0.05 0.06 0.07 0.12 0.11 0.08 0.06 0.07 0.06 0.04 0.02 0.02 0.02 0.01 0.01 0.02 0.02 0.02 0.02 0.02 0.03 0.04 0.04 0.03 0.03 0.03 0.03 0.05 0.05 0.05 0.04
MSLP
1006.70 1007.72 1008.95 1010.22 1011.36 1012.23 1012.75 1012.93 1012.83 1012.57 1012.32 1012.18 1012.21 1012.43 1012.76 1013.09 1013.30 1013.32 1013.09 1012.65 1012.07 1011.44 1010.87 1010.42 1010.12 1009.95 1009.86 1009.78 1009.65 1009.45 1009.19 1008.91 1008.66 1008.49 1008.46 1008.54 1008.73 1008.98 1009.25 1009.49 1009.69 1009.85 1010.01 1010.19 1010.41 1010.70 1011.04 1011.42 1011.81
1007.12 1008.34 1009.69 1010.99 1012.06 1012.78 1013.10 1013.04 1012.71 1012.25 1011.82 1011.55 1011.50 1011.66 1011.95 1012.28 1012.53 1012.61 1012.48 1012.16 1011.72 1011.24 1010.81 1010.48 1010.29 1010.20 1010.16 1010.12 1010.04 1009.88 1009.68 1009.46 1009.28 1009.17 1009.16 1009.25 1009.41 1009.60 1009.79 1009.95 1010.08 1010.20 1010.34 1010.53 1010.78 1011.10 1011.47 1011.86 1012.24
1007.68 1009.06 1010.47 1011.73 1012.69 1013.25 1013.36 1013.10 1012.58 1011.96 1011.40 1011.03 1010.90 1010.99 1011.25 1011.55 1011.79 1011.89 1011.82 1011.59 1011.27 1010.93 1010.64 1010.45 1010.37 1010.37 1010.41 1010.44 1010.41 1010.33 1010.19 1010.05 1009.93 1009.87 1009.88 1009.96 1010.07 1010.20 1010.31 1010.40 1010.47 1010.57 1010.70 1010.91 1011.20 1011.55 1011.94 1012.34 1012.70
1008.30 1009.75 1011.15 1012.32 1013.14 1013.52 1013.47 1013.05 1012.41 1011.70 1011.09 1010.67 1010.49 1010.54 1010.74 1010.99 1011.20 1011.29 1011.24 1011.07 1010.85 1010.62 1010.46 1010.40 1010.43 1010.53 1010.65 1010.74 1010.78 1010.76 1010.69 1010.62 1010.56 1010.54 1010.57 1010.63 1010.71 1010.78 1010.83 1010.87 1010.91 1010.99 1011.13 1011.36 1011.67 1012.05 1012.45 1012.84 1013.18
1008.88 1010.30 1011.60 1012.63 1013.28 1013.51 1013.33 1012.84 1012.16 1011.46 1010.87 1010.48 1010.31 1010.34 1010.50 1010.69 1010.84 1010.89 1010.84 1010.70 1010.55 1010.42 1010.37 1010.41 1010.54 1010.72 1010.90 1011.05 1011.13 1011.16 1011.15 1011.13 1011.12 1011.14 1011.18 1011.25 1011.31 1011.34 1011.36 1011.37 1011.39 1011.47 1011.62 1011.87 1012.19 1012.57 1012.96 1013.32 1013.62
1009.34 1010.62 1011.74 1012.57 1013.04 1013.13 1012.89 1012.40 1011.79 1011.20 1010.73 1010.44 1010.34 1010.39 1010.53 1010.67 1010.76 1010.76 1010.68 1010.56 1010.45 1010.40 1010.43 1010.56 1010.76 1010.98 1011.20 1011.37 1011.47 1011.52 1011.53 1011.54 1011.56 1011.62 1011.69 1011.77 1011.83 1011.86 1011.87 1011.87 1011.89 1011.97 1012.13 1012.38 1012.69 1013.05 1013.41 1013.72 1013.96
1009.58 1010.65 1011.52 1012.13 1012.42 1012.41 1012.16 1011.75 1011.29 1010.89 1010.61 1010.48 1010.50 1010.61 1010.76 1010.87 1010.91 1010.87 1010.77 1010.66 1010.59 1010.58 1010.68 1010.85 1011.08 1011.32 1011.53 1011.68 1011.77 1011.81 1011.82 1011.84 1011.89 1011.97 1012.07 1012.17 1012.26 1012.31 1012.33 1012.35 1012.38 1012.46 1012.61 1012.84 1013.12 1013.43 1013.73 1013.97 1014.16
1009.59 1010.40 1011.01 1011.39 1011.53 1011.45 1011.24 1010.95 1010.69 1010.52 1010.47 1010.54 1010.70 1010.89 1011.07 1011.17 1011.19 1011.13 1011.02 1010.93 1010.88 1010.92 1011.05 1011.25 1011.48 1011.70 1011.87 1011.97 1012.01 1012.01 1012.01 1012.02 1012.08 1012.19 1012.33 1012.47 1012.60 1012.68 1012.73 1012.76 1012.80 1012.88 1013.01 1013.20 1013.43 1013.68 1013.90 1014.08 1014.19
1009.41 1009.96 1010.33 1010.51 1010.52 1010.42 1010.27 1010.13 1010.07 1010.13 1010.30 1010.55 1010.85 1011.12 1011.33 1011.45 1011.46 1011.40 1011.30 1011.23 1011.22 1011.30 1011.45 1011.65 1011.86 1012.04 1012.15 1012.19 1012.17 1012.13 1012.09 1012.10 1012.18 1012.31 1012.49 1012.68 1012.84 1012.97 1013.05 1013.10 1013.14 1013.20 1013.30 1013.44 1013.62 1013.79 1013.94 1014.05 1014.11
1009.11 1009.47 1009.65 1009.68 1009.61 1009.51 1009.43 1009.43 1009.54 1009.78 1010.11 1010.50 1010.89 1011.22 1011.45 1011.57 1011.59 1011.54 1011.48 1011.45 1011.48 1011.59 1011.76 1011.96 1012.14 1012.27 1012.32 1012.30 1012.23 1012.14 1012.09 1012.10 1012.19 1012.36 1012.57 1012.80 1013.01 1013.17 1013.28 1013.34 1013.39 1013.43 1013.49 1013.59 1013.70 1013.81 1013.90 1013.95 1013.96
1008.83 1009.07 1009.14 1009.09 1008.99 1008.91 1008.89 1008.98 1009.20 1009.54 1009.95 1010.39 1010.80 1011.13 1011.36 1011.48 1011.51 1011.49 1011.47 1011.48 1011.56 1011.70 1011.89 1012.09 1012.24 1012.33 1012.34 1012.28 1012.17 1012.07 1012.01 1012.03 1012.15 1012.35 1012.60 1012.87 1013.11 1013.30 1013.43 1013.50 1013.54 1013.56 1013.60 1013.65 1013.71 1013.77 1013.81 1013.83 1013.81
1008.70 1008.91 1008.95 1008.89 1008.80 1008.74 1008.76 1008.90 1009.14 1009.48 1009.87 1010.27 1010.62 1010.90 1011.08 1011.18 1011.21 1011.22 1011.24 1011.31 1011.43 1011.61 1011.81 1012.00 1012.14 1012.21 1012.20 1012.13 1012.02 1011.92 1011.88 1011.93 1012.08 1012.30 1012.58 1012.87 1013.13 1013.34 1013.48 1013.56 1013.60 1013.61 1013.63 1013.66 1013.69 1013.73 1013.75 1013.74 1013.70
1008.81 1009.05 1009.13 1009.11 1009.06 1009.03 1009.07 1009.18 1009.38 1009.63 1009.91 1010.18 1010.41 1010.59 1010.69 1010.75 1010.77 1010.80 1010.86 1010.97 1011.13 1011.33 1011.54 1011.73 1011.87 1011.94 1011.93 1011.87 1011.79 1011.73 1011.73 1011.81 1011.98 1012.22 1012.51 1012.81 1013.07 1013.29 1013.43 1013.52 1013.56 1013.58 1013.60 1013.63 1013.66 1013.69 1013.71 1013.70 1013.66
1009.19 1009.50 1009.66 1009.71 1009.71 1009.71 1009.73 1009.78 1009.87 1009.98 1010.09 1010.18 1010.25 1010.29 1010.30 1010.31 1010.32 1010.36 1010.45 1010.59 1010.77 1010.98 1011.19 1011.37 1011.51 1011.58 1011.60 1011.57 1011.54 1011.53 1011.57 1011.68 1011.86 1012.10 1012.38 1012.66 1012.91 1013.12 1013.27 1013.37 1013.43 1013.48 1013.52 1013.57 1013.62 1013.67 1013.69 1013.69 1013.65
1009.77 1010.15 1010.38 1010.50 1010.56 1010.58 1010.58 1010.55 1010.51 1010.45 1010.37 1010.28 1010.18 1010.09 1010.02 1009.98 1009.98 1010.04 1010.14 1010.29 1010.48 1010.67 1010.87 1011.03 1011.16 1011.24 1011.29 1011.30 1011.32 1011.36 1011.43 1011.55 1011.73 1011.95 1012.19 1012.43 1012.65 1012.84 1013.00 1013.12 1013.21 1013.30 1013.38 1013.47 1013.55 1013.62 1013.66 1013.67 1013.63
1010.40 1010.82 1011.11 1011.30 1011.40 1011.44 1011.41 1011.31 1011.15 1010.94 1010.70 1010.45 1010.22 1010.03 1009.90 1009.84 1009.85 1009.93 1010.04 1010.19 1010.36 1010.52 1010.68 1010.81 1010.91 1011.00 1011.06 1011.12 1011.18 1011.25 1011.34 1011.45 1011.60 1011.76 1011.94 1012.13 1012.31 1012.48 1012.63 1012.78 1012.92 1013.05 1013.19 1013.32 1013.43 1013.53 1013.59 1013.60 1013.56
1010.92 1011.33 1011.64 1011.88 1012.03 1012.09 1012.05 1011.91 1011.67 1011.36 1011.00 1010.65 1010.34 1010.10 1009.96 1009.91 1009.94 1010.04 1010.16 1010.31 1010.44 1010.55 1010.65 1010.74 1010.82 1010.89 1010.97 1011.05 1011.13 1011.22 1011.30 1011.39 1011.48 1011.57 1011.67 1011.79 1011.91 1012.06 1012.22 1012.39 1012.58 1012.77 1012.95 1013.13 1013.28 1013.39 1013.46 1013.48 1013.44
1011.17 1011.53 1011.85 1012.12 1012.31 1012.42 1012.40 1012.26 1011.98 1011.62 1011.20 1010.80 1010.47 1010.23 1010.11 1010.10 1010.17 1010.30 1010.44 1010.57 1010.66 1010.73 1010.77 1010.81 1010.85 1010.91 1010.99 1011.09 1011.18 1011.27 1011.34 1011.37 1011.39 1011.40 1011.42 1011.45 1011.53 1011.65 1011.81 1012.02 1012.25 1012.49 1012.72 1012.93 1013.10 1013.22 1013.30 1013.32 1013.28
1011.05 1011.35 1011.67 1011.97 1012.24 1012.41 1012.45 1012.33 1012.07 1011.70 1011.28 1010.87 1010.54 1010.33 1010.25 1010.28 1010.41 1010.57 1010.72 1010.84 1010.91 1010.94 1010.93 1010.93 1010.95 1011.01 1011.10 1011.20 1011.31 1011.39 1011.43 1011.42 1011.36 1011.29 1011.22 1011.19 1011.22 1011.31 1011.48 1011.71 1011.98 1012.26 1012.52 1012.75 1012.93 1013.05 1013.12 1013.14 1013.11
1010.56 1010.82 1011.16 1011.53 1011.89 1012.16 1012.28 1012.23 1012.00 1011.65 1011.23 1010.82 1010.50 1010.31 1010.26 1010.33 1010.49 1010.68 1010.85 1010.97 1011.03 1011.04 1011.02 1011.01 1011.03 1011.10 1011.21 1011.35 1011.47 1011.55 1011.57 1011.52 1011.41 1011.26 1011.13 1011.04 1011.03 1011.11 1011.28 1011.53 1011.82 1012.12 1012.39 1012.62 1012.79 1012.91 1012.97 1012.99 1012.97
1009.78 1010.06 1010.46 1010.95 1011.44 1011.83 1012.06 1012.08 1011.90 1011.55 1011.11 1010.68 1010.34 1010.12 1010.07 1010.14 1010.31 1010.51 1010.70 1010.83 1010.90 1010.92 1010.92 1010.94 1011.00 1011.12 1011.28 1011.46 1011.63 1011.73 1011.75 1011.67 1011.53 1011.34 1011.16 1011.03 1010.99 1011.06 1011.23 1011.48 1011.78 1012.08 1012.35 1012.56 1012.71 1012.80 1012.85 1012.87 1012.88
1008.88 1009.24 1009.79 1010.43 1011.09 1011.63 1011.96 1012.05 1011.88 1011.51 1011.02 1010.51 1010.08 1009.79 1009.66 1009.69 1009.82 1010.01 1010.20 1010.35 1010.46 1010.53 1010.60 1010.69 1010.83 1011.03 1011.28 1011.53 1011.75 1011.90 1011.94 1011.87 1011.71 1011.51 1011.31 1011.16 1011.11 1011.16 1011.33 1011.57 1011.85 1012.13 1012.37 1012.55 1012.67 1012.73 1012.76 1012.78 1012.82
1008.06 1008.57 1009.30 1010.15 1010.99 1011.68 1012.12 1012.25 1012.06 1011.62 1011.02 1010.38 1009.81 1009.37 1009.12 1009.04 1009.10 1009.26 1009.44 1009.62 1009.79 1009.94 1010.10 1010.29 1010.55 1010.86 1011.21 1011.56 1011.85 1012.05 1012.14 1012.10 1011.95 1011.76 1011.56 1011.40 1011.34 1011.39 1011.53 1011.75 1012.00 1012.24 1012.43 1012.56 1012.64 1012.66 1012.68 1012.70 1012.77
1007.46 1008.17 1009.12 1010.18 1011.20 1012.03 1012.55 1012.69 1012.46 1011.92 1011.17 1010.36 1009.60 1008.98 1008.56 1008.34 1008.31 1008.40 1008.58 1008.79 1009.02 1009.27 1009.55 1009.87 1010.26 1010.69 1011.14 1011.58 1011.95 1012.22 1012.35 1012.34 1012.23 1012.05 1011.86 1011.71 1011.65 1011.67 1011.79 1011.97 1012.17 1012.36 1012.49 1012.57 1012.59 1012.58 1012.57 1012.60 1012.68
1007.19 1008.09 1009.24 1010.49 1011.67 1012.60 1013.17 1013.31 1013.02 1012.36 1011.46 1010.47 1009.52 1008.72 1008.12 1007.76 1007.62 1007.66 1007.82 1008.07 1008.37 1008.72 1009.11 1009.56 1010.07 1010.61 1011.16 1011.67 1012.10 1012.41 1012.58 1012.61 1012.52 1012.37 1012.19 1012.05 1011.98 1011.99 1012.07 1012.20 1012.34 1012.46 1012.53 1012.54 1012.51 1012.47 1012.44 1012.46 1012.55
1007.24 1008.30 1009.60 1010.97 1012.24 1013.23 1013.82 1013.93 1013.58 1012.83 1011.82 1010.70 1009.60 1008.65 1007.92 1007.45 1007.23 1007.22 1007.38 1007.66 1008.02 1008.46 1008.95 1009.51 1010.10 1010.72 1011.33 1011.88 1012.34 1012.67 1012.85 1012.90 1012.82 1012.68 1012.52 1012.39 1012.31 1012.29 1012.34 1012.42 1012.50 1012.55 1012.55 1012.51 1012.44 1012.36 1012.31 1012.32 1012.41
1007.56 1008.68 1010.03 1011.44 1012.72 1013.71 1014.27 1014.36 1013.98 1013.19 1012.14 1010.97 1009.82 1008.81 1008.02 1007.50 1007.24 1007.22 1007.38 1007.69 1008.11 1008.61 1009.18 1009.79 1010.43 1011.08 1011.70 1012.25 1012.69 1013.00 1013.17 1013.20 1013.13 1012.99 1012.84 1012.71 1012.62 1012.59 1012.60 1012.63 1012.65 1012.65 1012.60 1012.51 1012.40 1012.30 1012.23 1012.24 1012.31
1008.04 1009.11 1010.40 1011.72 1012.92 1013.84 1014.36 1014.43 1014.05 1013.31 1012.31 1011.20 1010.11 1009.15 1008.41 1007.92 1007.68 1007.68 1007.87 1008.21 1008.66 1009.19 1009.79 1010.42 1011.06 1011.69 1012.27 1012.76 1013.14 1013.40 1013.52 1013.52 1013.43 1013.29 1013.14 1013.01 1012.93 1012.88 1012.87 1012.87 1012.85 1012.80 1012.71 1012.59 1012.46 1012.35 1012.28 1012.27 1012.34
1008.57 1009.48 1010.57 1011.70 1012.72 1013.50 1013.95 1014.01 1013.70 1013.07 1012.23 1011.30 1010.40 1009.61 1009.01 1008.63 1008.48 1008.54 1008.77 1009.13 1009.60 1010.14 1010.72 1011.32 1011.92 1012.48 1012.98 1013.38 1013.67 1013.84 1013.89 1013.84 1013.72 1013.58 1013.43 1013.32 1013.24 1013.20 1013.18 1013.17 1013.13 1013.06 1012.95 1012.82 1012.68 1012.57 1012.50 1012.49 1012.55
1009.08 1009.73 1010.52 1011.37 1012.14 1012.73 1013.08 1013.14 1012.94 1012.49 1011.90 1011.25 1010.63 1010.10 1009.72 1009.52 1009.49 1009.63 1009.90 1010.29 1010.75 1011.26 1011.80 1012.35 1012.87 1013.34 1013.73 1014.02 1014.21 1014.28 1014.25 1014.15 1014.01 1013.85 1013.72 1013.63 1013.57 1013.56 1013.55 1013.54 1013.51 1013.43 1013.33 1013.20 1013.07 1012.96 1012.90 1012.90 1012.95
Thickness
5822 5820 5816 5804 5782 5764 5764 5778 5789 5790 5791 5799 5802 5795 5784 5776 5768 5761 5782 5791 5792 5791 5792 5792 5792 5793 5794 5794 5795 5795 5796 5796 5797 5797 5797 5797 5796 5796 5795 5793 5791 5789 5788 5786 5784 5782 5779 5777 5775
5826 5822 5812 5795 5769 5751 5762 5783 5788 5793 5799 5804 5801 5794 5785 5779 5785 5782 5785 5790 5792 5791 5793 5792 5792 5792 5793 5793 5794 5794 5795 5795 5795 5795 5795 5794 5794 5793 5792 5791 5789 5788 5786 5785 5783 5781 5778 5776 5774
5829 5825 5803 5784 5767 5760 5769 5788 5794 5802 5808 5806 5796 5793 5785 5779 5785 5785 5789 5792 5792 5792 5794 5793 5792 5792 5792 5792 5793 5793 5794 5793 5793 5793 5793 5792 5792 5790 5790 5789 5788 5787 5785 5783 5782 5779 5777 5776 5773
5827 5813 5799 5778 5771 5785 5791 5796 5803 5800 5802 5804 5796 5784 5786 5793 5791 5791 5793 5793 5791 5791 5793 5792 5791 5791 5791 5791 5792 5792 5792 5792 5792 5791 5791 5790 5789 5788 5788 5788 5786 5785 5783 5782 5780 5778 5776 5774 5772
5824 5803 5783 5772 5780 5796 5805 5809 5809 5799 5797 5797 5793 5778 5778 5792 5797 5795 5794 5793 5791 5790 5791 5790 5790 5790 5790 5790 5791 5791 5791 5791 5790 5790 5788 5788 5787 5787 5787 5786 5784 5783 5782 5780 5779 5777 5775 5773 5771
5809 5796 5772 5767 5784 5801 5809 5815 5810 5800 5795 5795 5790 5779 5777 5791 5792 5793 5794 5793 5792 5791 5790 5790 5790 5789 5789 5789 5789 5789 5789 5789 5788 5788 5786 5786 5786 5786 5785 5784 5783 5781 5780 5779 5778 5776 5774 5772 5770
5804 5789 5777 5783 5788 5796 5808 5818 5810 5801 5795 5796 5796 5778 5778 5788 5793 5795 5794 5793 5792 5791 5791 5790 5790 5789 5789 5788 5788 5788 5788 5788 5787 5786 5785 5784 5784 5784 5783 5782 5781 5780 5779 5778 5777 5776 5774 5772 5770
5817 5794 5784 5790 5792 5796 5814 5820 5817 5809 5802 5808 5803 5782 5777 5789 5796 5796 5793 5791 5790 5790 5789 5790 5789 5789 5788 5788 5787 5786 5786 5786 5785 5785 5784 5783 5782 5781 5781 5781 5779 5779 5778 5777 5777 5776 5774 5772 5770
5823 5789 5780 5794 5797 5803 5819 5816 5817 5821 5811 5808 5807 5799 5797 5800 5798 5793 5789 5787 5786 5787 5788 5789 5789 5788 5788 5787 5787 5786 5785 5785 5784 5783 5783 5782 5781 5780 5779 5779 5779 5778 5778 5777 5776 5775 5774 5772 5771
5813 5787 5798 5818 5821 5816 5821 5820 5817 5810 5801 5798 5799 5802 5804 5800 5796 5790 5786 5784 5784 5784 5787 5789 5789 5789 5789 5788 5787 5786 5785 5784 5783 5783 5782 5781 5780 5779 5778 5779 5778 5778 5777 5777 5776 5775 5774 5772 5770
5819 5808 5822 5831 5834 5830 5822 5821 5824 5808 5794 5798 5797 5798 5801 5798 5794 5791 5789 5788 5788 5788 5789 5789 5791 5791 5789 5789 5788 5787 5786 5785 5784 5783 5781 5781 5780 5779 5778 5778 5777 5777 5777 5776 5775 5774 5773 5772 5770
5826 5830 5836 5837 5841 5833 5826 5823 5818 5814 5809 5816 5813 5810 5803 5797 5794 5793 5792 5792 5792 5791 5791 5792 5793 5792 5791 5790 5789 5787 5786 5785 5785 5784 5783 5782 5780 5779 5778 5778 5777 5777 5777 5776 5775 5774 5773 5772 5771
5828 5831 5840 5844 5843 5838 5832 5824 5820 5816 5822 5821 5816 5810 5804 5800 5798 5798 5799 5797 5796 5793 5793 5793 5794 5793 5793 5791 5790 5788 5788 5787 5786 5785 5784 5783 5782 5780 5779 5778 5778 5777 5777 5776 5775 5774 5773 5772 5771
5834 5837 5838 5840 5839 5838 5827 5823 5821 5815 5823 5818 5813 5808 5807 5804 5802 5800 5799 5797 5797 5796 5795 5796 5796 5796 5795 5793 5792 5791 5790 5789 5788 5787 5786 5784 5783 5781 5780 5779 5778 5778 5777 5776 5775 5774 5772 5771 5770
5841 5829 5828 5833 5835 5833 5828 5810 5815 5822 5822 5815 5812 5811 5809 5808 5806 5804 5803 5801 5800 5799 5799 5798 5798 5797 5796 5795 5794 5793 5792 5790 5789 5788 5787 5785 5784 5783 5781 5780 5779 5778 5777 5776 5775 5774 5772 5770 5769
5827 5813 5802 5821 5831 5832 5817 5792 5815 5826 5821 5813 5813 5813 5810 5809 5810 5810 5809 5806 5805 5802 5800 5800 5801 5798 5797 5796 5795 5794 5793 5791 5790 5789 5788 5786 5785 5784 5783 5781 5780 5779 5778 5777 5775 5773 5771 5769 5767
5801 5789 5793 5811 5830 5829 5816 5800 5817 5826 5822 5814 5815 5815 5812 5810 5811 5812 5813 5810 5808 5806 5803 5801 5801 5799 5798 5797 5796 5795 5793 5792 5791 5790 5789 5788 5786 5785 5784 5782 5781 5780 5778 5776 5775 5772 5770 5767 5765
5788 5790 5795 5801 5822 5824 5812 5809 5818 5824 5823 5818 5818 5817 5814 5812 5813 5816 5815 5814 5811 5809 5806 5803 5801 5800 5799 5797 5796 5794 5793 5792 5792 5791 5790 5789 5788 5786 5785 5783 5781 5780 5778 5776 5774 5772 5770 5768 5766
5812 5802 5798 5809 5827 5817 5809 5810 5816 5822 5821 5818 5817 5818 5817 5817 5820 5820 5818 5816 5813 5809 5807 5805 5801 5800 5799 5796 5793 5791 5789 5790 5791 5791 5791 5790 5789 5787 5786 5784 5781 5780 5778 5776 5775 5772 5769 5767 5766
5817 5803 5799 5812 5828 5817 5806 5809 5819 5823 5823 5823 5821 5820 5819 5817 5817 5818 5818 5817 5814 5810 5808 5806 5804 5802 5801 5799 5797 5795 5793 5792 5793 5793 5792 5791 5789 5788 5787 5784 5782 5781 5778 5776 5774 5772 5768 5767 5767
5815 5807 5806 5807 5819 5817 5807 5798 5809 5821 5827 5827 5828 5827 5826 5823 5820 5819 5818 5817 5816 5813 5811 5810 5807 5805 5803 5802 5799 5796 5793 5792 5791 5790 5790 5791 5790 5789 5787 5785 5783 5781 5779 5776 5775 5773 5769 5764 5765
5808 5828 5825 5818 5801 5787 5795 5769 5796 5811 5817 5822 5826 5828 5828 5830 5827 5824 5821 5819 5818 5817 5816 5813 5810 5807 5805 5803 5799 5794 5790 5787 5789 5790 5790 5790 5790 5789 5787 5785 5783 5782 5779 5777 5776 5775 5771 5767 5762
5824 5839 5830 5819 5800 5785 5788 5774 5786 5808 5808 5817 5826 5831 5834 5835 5833 5830 5828 5825 5823 5822 5818 5815 5811 5808 5806 5804 5801 5796 5792 5791 5791 5791 5790 5789 5789 5788 5787 5786 5784 5782 5780 5778 5777 5775 5772 5769 5764
5839 5829 5816 5802 5784 5764 5780 5775 5778 5800 5814 5823 5828 5834 5836 5838 5837 5834 5833 5829 5826 5823 5820 5816 5812 5809 5807 5805 5802 5798 5795 5792 5790 5789 5787 5787 5787 5787 5786 5786 5784 5782 5781 5779 5777 5775 5773 5770 5767
5828 5796 5767 5762 5750 5755 5783 5779 5785 5819 5832 5834 5833 5836 5840 5840 5837 5834 5831 5828 5826 5823 5820 5817 5812 5809 5808 5805 5803 5800 5797 5795 5791 5790 5788 5786 5785 5784 5785 5785 5783 5782 5781 5779 5778 5775 5773 5770 5767
5816 5799 5764 5748 5743 5755 5776 5774 5801 5833 5840 5843 5842 5841 5841 5839 5838 5837 5835 5832 5829 5826 5823 5819 5814 5811 5809 5806 5804 5802 5799 5796 5794 5792 5790 5788 5786 5786 5786 5785 5783 5782 5781 5779 5777 5774 5773 5770 5767
5814 5801 5800 5771 5760 5752 5763 5782 5809 5831 5834 5837 5837 5836 5836 5837 5838 5837 5836 5834 5831 5828 5825 5822 5817 5813 5811 5808 5805 5802 5800 5797 5795 5793 5791 5789 5788 5787 5786 5784 5783 5781 5780 5778 5775 5772 5770 5769 5766
5827 5814 5787 5766 5746 5740 5756 5771 5781 5808 5819 5827 5830 5830 5832 5836 5836 5836 5836 5835 5833 5830 5827 5823 5819 5815 5812 5809 5806 5803 5800 5798 5796 5793 5790 5789 5788 5787 5785 5783 5781 5780 5778 5776 5773 5771 5769 5767 5764
5810 5804 5787 5768 5762 5743 5739 5761 5808 5812 5819 5822 5827 5829 5830 5832 5833 5833 5833 5833 5831 5828 5825 5822 5818 5815 5811 5808 5805 5803 5800 5798 5795 5792 5791 5789 5788 5786 5784 5782 5780 5777 5776 5774 5771 5768 5766 5763 5761
5813 5802 5785 5764 5757 5754 5748 5765 5820 5821 5823 5825 5825 5828 5830 5830 5831 5831 5829 5827 5826 5824 5821 5819 5817 5814 5811 5809 5805 5801 5799 5796 5794 5791 5791 5789 5787 5785 5783 5780 5778 5775 5773 5771 5768 5765 5763 5760 5758